This demonstration page uses our WeatherBlox Daily Observations layout. Learn more.

Left ArrowRight Arrow

Hourly Observations for April 10, 2018

Temp ( °F °C ) Dew Point ( °F °C ) Humidity (%) Winds ( mph kmh ) Pressure ( in mb ) Visibility ( mi km ) Precip ( " mm )
12:29 am 00:29 Cloudy 47 8.3 38 3.3 71 71 NE 5 7 30.15 1021 10 16 0.00 0.00
12:59 am 00:59 Cloudy 47 8.3 39 3.9 74 74 NNE 7 11 30.15 1021 10 16 0.00 0.00
1:59 am 01:59 Cloudy 47 8.3 39 3.9 74 74 NNE 6 9 30.14 1021 10 16 0.00 0.00
2:07 am 02:07 Cloudy 47 8.3 39 3.9 74 74 NNE 7 11 30.15 1021 10 16 0.00 0.00
2:59 am 02:59 Cloudy 47 8.3 39 3.9 74 74 N 10 17 30.14 1021 10 16 0.00 0.00
3:59 am 03:59 Cloudy 46 7.8 40 4.4 79 79 N 9 15 30.14 1021 10 16 0.00 0.00
4:59 am 04:59 Cloudy 47 8.3 40 4.4 77 77 N 12 19 30.13 1020 10 16 0.00 0.00
5:59 am 05:59 Cloudy 47 8.3 40 4.4 77 77 N 9 15 30.15 1021 10 16 0.00 0.00
6:59 am 06:59 Cloudy 47 8.3 40 4.4 77 77 NNE 8 13 30.17 1022 10 16 0.00 0.00
7:59 am 07:59 Cloudy 47 8.3 40 4.4 77 77 NNE 13 20 30.19 1023 9 14 0.00 0.00
8:59 am 08:59 Cloudy 47 8.3 40 4.4 77 77 NNE 12 19 30.21 1023 9 14 0.00 0.00
9:41 am 09:41 Cloudy 48 8.9 36 2.2 63 63 N 16 26 30.21 1023 10 16 0.00 0.00
9:59 am 09:59 Cloudy 48 8.9 37 2.8 66 66 N 17 28 30.21 1023 10 16 0.00 0.00
10:59 am 10:59 Mostly Cloudy 49 9.4 37 2.8 64 64 NNE 14 22 30.22 1024 10 16 0.00 0.00
11:59 am 11:59 Mostly Cloudy 50 10 37 2.8 61 61 NE 15 24 30.22 1023 10 16 0.00 0.00
12:59 pm 12:59 Mostly Cloudy 49 9.4 35 1.7 59 59 NE 13 20 30.20 1023 10 16 0.00 0.00
1:59 pm 13:59 Mostly Cloudy 51 10.6 36 2.2 56 56 NE 9 15 30.19 1022 10 16 0.00 0.00
2:59 pm 14:59 Mostly Cloudy 51 10.6 35 1.7 54 54 NNE 13 20 30.16 1021 10 16 0.00 0.00
3:59 pm 15:59 Mostly Cloudy 52 11.1 33 0.6 49 49 ENE 10 17 30.14 1021 10 16 0.00 0.00
4:59 pm 16:59 Partly Cloudy 52 11.1 31 -0.6 45 45 NNE 13 20 30.13 1020 10 16 0.00 0.00
5:59 pm 17:59 Partly Cloudy 52 11.1 33 0.6 49 49 NNE 13 20 30.14 1021 10 16 0.00 0.00
6:59 pm 18:59 Partly Cloudy 50 10 32 0 50 50 NNE 15 24 30.14 1021 10 16 0.00 0.00
7:59 pm 19:59 Partly Cloudy 49 9.4 32 0 52 52 NNE 10 17 30.15 1021 10 16 0.00 0.00
8:59 pm 20:59 Mostly Clear 47 8.3 38 3.3 71 71 E 8 13 30.17 1022 9 14 0.00 0.00
9:59 pm 21:59 Mostly Clear 44 6.7 37 2.8 76 76 E 6 9 30.20 1023 8 13 0.00 0.00
10:59 pm 22:59 Mostly Clear 43 6.1 36 2.2 76 76 ESE 6 9 30.21 1023 7 11 0.00 0.00
11:59 pm 23:59 Mostly Clear 42 5.6 37 2.8 82 82 ESE 6 9 30.20 1023 7 11 0.00 0.00

Powered by AerisWeather